Weather History for KARR - February, 2013

Change the Weather History Date:

Sunday, February 3, 2013

  Actual Average Record
Temperature  
Mean Temperature 15 °F 22 °F  
Max Temperature 21 °F 30 °F 45 °F (2005)
Min Temperature 9 °F 13 °F -20 °F (2014)
Degree Days  
Heating Degree Days 50 43  
Month to date heating degree days 160 131  
Since 1 July heating degree days 3847 4148  
Cooling Degree Days 0 0  
Month to date cooling degree days 0 0  
Year to date cooling degree days 0 0  
Moisture  
Dew Point 13 °F    
Average Humidity 80    
Maximum Humidity 92    
Minimum Humidity 68    
Precipitation  
Precipitation T in 0.04 in 0.44 in (2006)
Month to date precipitation T 0.12  
Year to date precipitation 3.14 1.59  
Sea Level Pressure  
Sea Level Pressure 30.03 in    
Wind  
Wind Speed 9 mph (West)    
Max Wind Speed 22 mph    
Max Gust Speed 25 mph    
Visibility 5 miles    
Events Snow    
T = Trace of Precipitation, MM = Missing Value Source: NWS Daily Summary

Daily Weather History Graph

Daily Weather History Graph

Search for Another Location

Airport or City:

Trip Planner

Search our weather history database for the weather conditions in past years. The results will help you decide how hot, cold, wet, or windy it might be!

Date:

Astronomy

Feb. 03, 2013 Rise Set
Actual Time 7:03 AM CST 5:12 PM CST
Civil Twilight 6:34 AM CST 5:41 PM CST
Nautical Twilight 6:01 AM CST 6:14 PM CST
Astronomical Twilight 5:28 AM CST 6:47 PM CST
Moon 12:31 AM CST (2/3) 10:48 AM CST (2/3)
Length of Visible Light 11h 07m
Length of Day
10h 08m
Waning Gibbous, 48% of the Moon is Illuminated
Feb 3
Waning Gibbous
Feb 10
New
Feb 17
First Quarter
Feb 25
Full
Mar 4
Last Quarter

Hourly Weather History & Observations

Time (CST) Temp. Windchill Dew Point Humidity Pressure Visibility Wind Dir Wind Speed Gust Speed Precip Events Conditions
12:52 AM 10.0 °F 1.8 °F 3.9 °F 76% 30.06 in 10.0 mi SW 4.6 mph - N/A   Overcast
1:52 AM 10.9 °F 4.7 °F 6.1 °F 81% 30.04 in 3.0 mi WSW 3.5 mph - 0.00 in Snow Light Snow
3:52 AM 10.9 °F 4.7 °F 7.0 °F 84% 30.00 in 5.0 mi SSW 3.5 mph - 0.00 in Snow Light Snow
4:52 AM 10.9 °F 2.9 °F 8.1 °F 88% 30.00 in 8.0 mi SW 4.6 mph - 0.00 in   Overcast
5:52 AM 12.0 °F 2.7 °F 8.1 °F 84% 30.01 in 6.0 mi WSW 5.8 mph - 0.00 in Snow Light Snow
6:16 AM 12.2 °F 6.1 °F 8.6 °F 85% 29.96 in 3.0 mi WSW 3.5 mph - 0.00 in Snow Light Snow
6:39 AM 12.2 °F 4.3 °F 10.4 °F 92% 29.97 in 2.5 mi SW 4.6 mph - 0.00 in Snow Light Snow
6:47 AM 12.2 °F 4.3 °F 10.4 °F 92% 29.97 in 4.0 mi WSW 4.6 mph - 0.00 in Snow Light Snow
6:52 AM 12.9 °F 3.8 °F 10.0 °F 88% 30.01 in 5.0 mi SW 5.8 mph - 0.00 in Snow Light Snow
7:11 AM 12.2 °F 4.3 °F 10.4 °F 92% 29.97 in 1.8 mi SW 4.6 mph - 0.00 in Snow Light Snow
7:34 AM 12.2 °F 4.3 °F 10.4 °F 92% 29.98 in 2.5 mi WSW 4.6 mph - 0.00 in Snow Light Snow
7:42 AM 12.2 °F 6.1 °F 10.4 °F 92% 29.98 in 4.0 mi WSW 3.5 mph - 0.00 in Snow Light Snow
7:52 AM 12.9 °F 6.9 °F 10.9 °F 92% 30.02 in 2.0 mi WSW 3.5 mph - 0.00 in Snow Light Snow
8:29 AM 14.0 °F 2.9 °F 12.2 °F 93% 29.98 in 1.8 mi WSW 8.1 mph - 0.00 in Snow Light Snow
8:43 AM 15.8 °F 5.1 °F 12.2 °F 86% 29.98 in 2.0 mi WSW 8.1 mph - 0.00 in Snow Light Snow
8:52 AM 15.1 °F 3.3 °F 12.0 °F 88% 30.03 in 2.5 mi WSW 9.2 mph - 0.00 in Snow Light Snow
9:37 AM 15.8 °F 3.4 °F 14.0 °F 93% 29.99 in 1.5 mi West 10.4 mph - 0.00 in Snow Light Snow
9:52 AM 17.1 °F 4.3 °F 14.0 °F 88% 30.04 in 1.5 mi West 11.5 mph - 0.00 in Snow Light Snow
10:05 AM 17.6 °F 3.7 °F 14.0 °F 86% 29.99 in 2.5 mi WNW 13.8 mph - 0.00 in Snow Light Snow
10:33 AM 17.6 °F 2.2 °F 12.2 °F 79% 30.00 in 4.0 mi NW 17.3 mph - 0.00 in Snow Light Snow
10:52 AM 18.0 °F 2.6 °F 12.0 °F 78% 30.05 in 5.0 mi NW 17.3 mph - 0.00 in Snow Light Snow
11:06 AM 17.6 °F 2.7 °F 12.2 °F 79% 30.02 in 5.0 mi NW 16.1 mph - 0.00 in Snow Light Snow
11:13 AM 17.6 °F 2.7 °F 12.2 °F 79% 30.02 in 5.0 mi WNW 16.1 mph - 0.00 in   Haze
11:20 AM 17.6 °F 2.2 °F 12.2 °F 79% 30.02 in 5.0 mi NW 17.3 mph - 0.00 in   Haze
11:52 AM 19.0 °F 3.6 °F 12.9 °F 77% 30.06 in 4.0 mi WNW 18.4 mph - 0.00 in Snow Light Snow
12:24 PM 19.4 °F 5.0 °F 12.2 °F 74% 30.02 in 6.0 mi WNW 16.1 mph - 0.00 in   Haze
12:31 PM 19.4 °F 4.1 °F 12.2 °F 74% 30.02 in 7.0 mi WNW 18.4 mph - 0.00 in   Overcast
12:52 PM 19.9 °F 5.2 °F 12.9 °F 74% 30.06 in 7.0 mi WNW 17.3 mph - 0.00 in   Mostly Cloudy
1:52 PM 19.9 °F 4.8 °F 12.0 °F 71% 30.07 in 8.0 mi WNW 18.4 mph - N/A   Scattered Clouds
2:52 PM 21.0 °F 7.6 °F 12.0 °F 68% 30.07 in 10.0 mi WNW 15.0 mph - N/A   Clear
3:52 PM 21.0 °F 7.1 °F 12.0 °F 68% 30.07 in 10.0 mi West 16.1 mph - N/A   Overcast
4:52 PM 18.0 °F 5.4 °F 10.9 °F 74% 30.07 in 10.0 mi West 11.5 mph - N/A   Mostly Cloudy
5:52 PM 19.9 °F 9.3 °F 12.9 °F 74% 30.07 in 10.0 mi WSW 9.2 mph - N/A   Overcast
6:52 PM 19.9 °F 9.3 °F 12.9 °F 74% 30.07 in 10.0 mi West 9.2 mph - N/A   Overcast
7:52 PM 21.0 °F 12.4 °F 15.1 °F 78% 30.08 in 10.0 mi WSW 6.9 mph - N/A   Overcast
8:52 PM 19.9 °F 12.1 °F 15.1 °F 81% 30.09 in 10.0 mi West 5.8 mph - N/A   Overcast
9:43 PM 21.2 °F 11.7 °F 17.6 °F 86% 30.06 in 2.5 mi WSW 8.1 mph - 0.00 in Snow Light Snow
9:52 PM 19.9 °F 10.1 °F 18.0 °F 92% 30.09 in 1.5 mi West 8.1 mph - 0.00 in Snow Light Snow
10:12 PM 21.2 °F 13.6 °F 17.6 °F 86% 30.05 in 2.0 mi West 5.8 mph - 0.00 in Snow Light Snow
10:22 PM 21.2 °F 12.6 °F 17.6 °F 86% 30.05 in 1.5 mi West 6.9 mph - 0.00 in Snow Light Snow
10:48 PM 21.2 °F 14.9 °F 19.4 °F 93% 30.05 in 1.2 mi WSW 4.6 mph - 0.00 in Snow Light Snow
10:52 PM 21.0 °F 13.4 °F 19.0 °F 92% 30.08 in 1.2 mi WSW 5.8 mph - 0.00 in Snow Light Snow
11:09 PM 21.2 °F 12.6 °F 19.4 °F 93% 30.04 in 1.8 mi WSW 6.9 mph - 0.00 in Snow Light Snow
11:52 PM 21.0 °F - 19.0 °F 92% 30.06 in 1.5 mi Calm Calm - 0.00 in Snow Light Snow